Home   Weather   Alicante   Past weeks

Flag for Spain Past Weather in Alicante, Spain — Yesterday and Last 2 Weeks

Now
77 °F

Passing clouds.


Feels Like: 79 °F
Forecast: 70 / 77 °F
Wind: 15 mph from East

Location: Alicante / El Altet

Current Time: Sep 28, 2016 at 12:22:42 PM

Latest Report: Sep 28, 2016 at 11:30 AM


Visibility: N/A

Pressure: 30.30 "Hg

Humidity: 47%

Dew Point: 55 °F

Location of AlicanteLocation

Past Weather in Alicante — Graph

°F

Alicante Temperature Yesterday

Maximum temperature yesterday: 79 °F (at 11:30 AM)
Minimum temperature yesterday: 68 °F (at 5:30 AM)
Average temperature yesterday: 74 °F

High & Low Weather Summary for the Past Weeks

 TemperatureHumidityPressure
High88 °F (Sep 16, 4:30 PM)88% (Sep 21, 3:00 AM)30.30 "Hg (Sep 21, 3:00 AM)
Low59 °F (Sep 15, 4:30 AM)20% (Sep 14, 6:00 PM)29.80 "Hg (Sep 13, 7:00 PM)
Average73 °F62%30.06 "Hg
* Reported Sep 13 11:00 AM — Sep 28 11:00 AM, Alicante, Weather by CustomWeather, © 2016

Note: Actual official high and low records may vary slightly from our data, if they occured in-between our weather recording intervals... More about our weather records

Advertising

Alicante Weather History for the Previous 24 Hours

Scroll right to see more
 ConditionsComfort  
Time TempWeatherWind HumidityBarometerVisibility
11:00 AM
Wed, Sep 28
75 °FScattered clouds.13 mph50%30.30 "HgN/A
10:30 AM75 °FScattered clouds.13 mph54%30.30 "HgN/A
10:00 AM73 °FScattered clouds.10 mph57%30.30 "HgN/A
9:30 AM70 °FScattered clouds.7 mph69%30.30 "HgN/A
9:00 AM68 °FScattered clouds.8 mph78%30.30 "HgN/A
8:30 AM66 °FScattered clouds.3 mph83%30.27 "HgN/A
8:00 AM66 °FScattered clouds.8 mph83%30.27 "HgN/A
7:30 AM66 °FLight rain. Passing clouds.8 mph88%30.27 "HgN/A
7:00 AM68 °FLight rain. Partly cloudy.14 mph83%30.27 "HgN/A
6:30 AM68 °FPartly cloudy.20 mph83%30.27 "HgN/A
6:00 AM72 °FClear.3 mph73%30.24 "HgN/A
5:30 AM70 °FClear.6 mph78%30.21 "HgN/A
5:00 AM70 °FClear.6 mph78%30.21 "HgN/A
4:30 AM70 °FClear.2 mph78%30.21 "HgN/A
4:00 AM70 °FClear.5 mph78%30.24 "HgN/A
3:30 AM72 °FClear.5 mph73%30.24 "HgN/A
3:00 AM72 °FClear.5 mph73%30.24 "HgN/A
2:30 AM72 °FClear.5 mph73%30.24 "HgN/A
2:00 AM72 °FClear.5 mph78%30.24 "HgN/A
1:30 AM72 °FPassing clouds.6 mph78%30.24 "HgN/A
1:00 AM72 °FPassing clouds.6 mph73%30.27 "HgN/A
12:30 AM72 °FPassing clouds.6 mph78%30.27 "HgN/A
12:00 AM72 °FPassing clouds.5 mph78%30.27 "HgN/A
11:30 PM
Tue, Sep 27
72 °FPassing clouds.5 mph78%30.24 "HgN/A
11:00 PM72 °FPassing clouds.5 mph78%30.24 "HgN/A
10:30 PM73 °FPassing clouds.3 mph78%30.24 "HgN/A
10:00 PM73 °FClear.3 mph78%30.24 "Hg10 mi
9:30 PM73 °FPassing clouds.3 mph78%30.24 "HgN/A
9:00 PM73 °FPassing clouds.3 mph78%30.24 "HgN/A
8:30 PM73 °FPassing clouds.5 mph78%30.24 "HgN/A
8:00 PM73 °FPassing clouds.3 mph78%30.21 "HgN/A
7:00 PM75 °FPassing clouds.6 mph69%30.21 "HgN/A
6:30 PM75 °FPassing clouds.7 mph69%30.21 "HgN/A
6:00 PM75 °FScattered clouds.6 mph61%30.21 "HgN/A
5:30 PM77 °FScattered clouds.12 mph69%30.21 "HgN/A
5:00 PM77 °FPassing clouds.10 mph69%30.21 "HgN/A
4:30 PM77 °FScattered clouds.10 mph65%30.21 "HgN/A
4:00 PM79 °FScattered clouds.10 mph65%30.21 "HgN/A
3:30 PM79 °FPassing clouds.9 mph65%30.21 "HgN/A
3:00 PM77 °FPassing clouds.9 mph65%30.21 "HgN/A
2:30 PM79 °FPassing clouds.9 mph58%30.24 "HgN/A
2:00 PM79 °FPassing clouds.8 mph61%30.24 "HgN/A
1:30 PM79 °FPassing clouds.9 mph61%30.24 "HgN/A
1:00 PM79 °FPassing clouds.8 mph58%30.24 "HgN/A
12:30 PM79 °FPassing clouds.9 mph61%30.24 "HgN/A
12:00 PM79 °FPassing clouds.8 mph61%30.24 "HgN/A
Weather by CustomWeather, © 2016

See weather overviewHow to use our weather pages